SB KEPS @ AMSAT $ORB07207.O Orbital Elements 07207.OSCAR
HR AMSAT ORBITAL ELEMENTS FOR OSCAR SATELLITES FROM WA5QGD FORT WORTH,TX July 26, 2007 Send Subscribe/unsubscribe to KEPS at http://www.amsat.org/mailman/listinfo/keps BID: ORB07207.O TO ALL RADIO AMATEURS BT
Satellite: AO-07 Catalog number: 07530 Epoch time: 07206.92745771 Element set: 0936 Inclination: 101.5117 deg RA of node: 243.7924 deg Eccentricity: 0.0011860 Arg of perigee: 179.1865 deg Mean anomaly: 180.9225 deg Mean motion: 12.53572453 rev/day Decay rate: -2.8e-07 rev/day^2 Epoch rev: 49597 Checksum: 317
Satellite: AO-10 Catalog number: 14129 Epoch time: 07207.39902672 Element set: 404 Inclination: 026.3102 deg RA of node: 264.9505 deg Eccentricity: 0.6066524 Arg of perigee: 042.0957 deg Mean anomaly: 351.2283 deg Mean motion: 02.05868025 rev/day Decay rate: -6.8e-07 rev/day^2 Epoch rev: 18137 Checksum: 287
Satellite: UO-11 Catalog number: 14781 Epoch time: 07206.73879734 Element set: 0430 Inclination: 098.1892 deg RA of node: 230.1802 deg Eccentricity: 0.0010084 Arg of perigee: 051.7454 deg Mean anomaly: 308.4640 deg Mean motion: 14.79567597 rev/day Decay rate: -8.9e-07 rev/day^2 Epoch rev: 25543 Checksum: 318
Satellite: RS-15 Catalog number: 23439 Epoch time: 07206.74110596 Element set: 0053 Inclination: 064.8195 deg RA of node: 304.5714 deg Eccentricity: 0.0158513 Arg of perigee: 183.8227 deg Mean anomaly: 176.1495 deg Mean motion: 11.27552050 rev/day Decay rate: -3.9e-07 rev/day^2 Epoch rev: 51804 Checksum: 297
Satellite: FO-29 Catalog number: 24278 Epoch time: 07206.88089888 Element set: 0564 Inclination: 098.5539 deg RA of node: 161.3330 deg Eccentricity: 0.0351071 Arg of perigee: 343.2150 deg Mean anomaly: 015.7602 deg Mean motion: 13.52931592 rev/day Decay rate: -4.0e-07 rev/day^2 Epoch rev: 54013 Checksum: 302
Satellite: SO-33 Catalog number: 25509 Epoch time: 07206.85058100 Element set: 981 Inclination: 031.4316 deg RA of node: 007.1388 deg Eccentricity: 0.0354824 Arg of perigee: 045.3381 deg Mean anomaly: 317.5600 deg Mean motion: 14.28170137 rev/day Decay rate: 1.53e-06 rev/day^2 Epoch rev: 45678 Checksum: 287
Satellite: AO-40 Catalog number: 26609 Epoch time: 07205.76052833 Element set: 908 Inclination: 006.0104 deg RA of node: 130.9286 deg Eccentricity: 0.7975964 Arg of perigee: 344.7543 deg Mean anomaly: 000.9440 deg Mean motion: 01.25587105 rev/day Decay rate: -3.20e-06 rev/day^2 Epoch rev: 3091 Checksum: 289
Satellite: VO-52 Catalog number: 28650 Epoch time: 07206.67909244 Element set: 685 Inclination: 097.8299 deg RA of node: 276.5329 deg Eccentricity: 0.0028200 Arg of perigee: 126.7121 deg Mean anomaly: 233.6695 deg Mean motion: 14.81338667 rev/day Decay rate: -2.00e-06 rev/day^2 Epoch rev: 12011 Checksum: 312
Satellite: PO-63 Catalog number: 29712 Epoch time: 07207.66742122 Element set: 579 Inclination: 097.9193 deg RA of node: 266.2764 deg Eccentricity: 0.0014508 Arg of perigee: 007.6317 deg Mean anomaly: 352.5115 deg Mean motion: 14.79772410 rev/day Decay rate: 4.70e-06 rev/day^2 Epoch rev: 2917 Checksum: 314
/EX SB KEPS @ AMSAT $ORB07207.D Orbital Elements 07207.MICROS
HR AMSAT ORBITAL ELEMENTS FOR THE MICROSATS FROM WA5QGD FORT WORTH,TX July 26, 2007 Send Subscribe/unsubscribe to KEPS at http://www.amsat.org/mailman/listinfo/keps BID: ORB07207.D TO ALL RADIO AMATEURS BT
Satellite: AO-16 Catalog number: 20439 Epoch time: 07207.57525984 Element set: 90 Inclination: 098.1972 deg RA of node: 199.9632 deg Eccentricity: 0.0012046 Arg of perigee: 069.4469 deg Mean anomaly: 290.8020 deg Mean motion: 14.31765804 rev/day Decay rate: -8.0e-08 rev/day^2 Epoch rev: 91418 Checksum: 325
Satellite: LO-19 Catalog number: 20442 Epoch time: 07206.55903560 Element set: 16 Inclination: 098.1811 deg RA of node: 208.2999 deg Eccentricity: 0.0013061 Arg of perigee: 071.9507 deg Mean anomaly: 288.3091 deg Mean motion: 14.32005948 rev/day Decay rate: -4.2e-07 rev/day^2 Epoch rev: 91418 Checksum: 292
Satellite: AO-27 Catalog number: 22825 Epoch time: 07206.42291945 Element set: 0740 Inclination: 098.3329 deg RA of node: 174.6417 deg Eccentricity: 0.0008689 Arg of perigee: 142.9009 deg Mean anomaly: 217.2763 deg Mean motion: 14.29213973 rev/day Decay rate: 6.7e-07 rev/day^2 Epoch rev: 72095 Checksum: 326
Satellite: IO-26 Catalog number: 22826 Epoch time: 07206.88364276 Element set: 0437 Inclination: 098.3261 deg RA of node: 176.1367 deg Eccentricity: 0.0009183 Arg of perigee: 138.3512 deg Mean anomaly: 221.8371 deg Mean motion: 14.29460159 rev/day Decay rate: -2.0e-08 rev/day^2 Epoch rev: 72110 Checksum: 296
Satellite: PO-28 Catalog number: 22829 Epoch time: 07206.47090877 Element set: 0715 Inclination: 098.3149 deg RA of node: 176.9033 deg Eccentricity: 0.0010609 Arg of perigee: 116.2775 deg Mean anomaly: 243.9514 deg Mean motion: 14.30160434 rev/day Decay rate: -1.13e-06 rev/day^2 Epoch rev: 72128 Checksum: 301
Satellite: GO-32 Catalog number: 25397 Epoch time: 07207.18099719 Element set: 358 Inclination: 098.4123 deg RA of node: 252.6833 deg Eccentricity: 0.0002139 Arg of perigee: 105.8826 deg Mean anomaly: 254.2611 deg Mean motion: 14.23128021 rev/day Decay rate: -1.03e-06 rev/day^2 Epoch rev: 46970 Checksum: 294
Satellite: MO-46 Catalog number: 26548 Epoch time: 07206.68504979 Element set: 0855 Inclination: 064.5566 deg RA of node: 063.5661 deg Eccentricity: 0.0010677 Arg of perigee: 191.8304 deg Mean anomaly: 168.2543 deg Mean motion: 14.83160454 rev/day Decay rate: -1.60e-06 rev/day^2 Epoch rev: 36925 Checksum: 330
Satellite: NO-44 Catalog number: 26931 Epoch time: 07207.05938174 Element set: 643 Inclination: 067.0524 deg RA of node: 047.3570 deg Eccentricity: 0.0007295 Arg of perigee: 264.1554 deg Mean anomaly: 095.8723 deg Mean motion: 14.29491950 rev/day Decay rate: 1.67e-06 rev/day^2 Epoch rev: 30365 Checksum: 314
Satellite: SO-50 Catalog number: 27607 Epoch time: 07207.34313123 Element set: 367 Inclination: 064.5589 deg RA of node: 326.1490 deg Eccentricity: 0.0059520 Arg of perigee: 349.5183 deg Mean anomaly: 010.4681 deg Mean motion: 14.71274209 rev/day Decay rate: -1.02e-06 rev/day^2 Epoch rev: 24688 Checksum: 294
Satellite: CO-55 Catalog number: 27844 Epoch time: 07206.70352946 Element set: 81 Inclination: 098.7187 deg RA of node: 214.4763 deg Eccentricity: 0.0010196 Arg of perigee: 347.1664 deg Mean anomaly: 012.9253 deg Mean motion: 14.20522746 rev/day Decay rate: 1.1e-07 rev/day^2 Epoch rev: 21094 Checksum: 294
Satellite: CO-57 Catalog number: 27848 Epoch time: 07207.57437491 Element set: 41 Inclination: 098.7174 deg RA of node: 214.5167 deg Eccentricity: 0.0010126 Arg of perigee: 347.3838 deg Mean anomaly: 012.7091 deg Mean motion: 14.20340658 rev/day Decay rate: 1.0e-08 rev/day^2 Epoch rev: 21104 Checksum: 284
Satellite: AO-51 Catalog number: 28375 Epoch time: 07206.63102454 Element set: 871 Inclination: 098.1096 deg RA of node: 243.9637 deg Eccentricity: 0.0085231 Arg of perigee: 065.8334 deg Mean anomaly: 295.1738 deg Mean motion: 14.40575034 rev/day Decay rate: 5.0e-08 rev/day^2 Epoch rev: 16124 Checksum: 301
Satellite: CO-56 Catalog number: 28941 Epoch time: 07207.55807205 Element set: 511 Inclination: 098.1285 deg RA of node: 273.0719 deg Eccentricity: 0.0221682 Arg of perigee: 133.3836 deg Mean anomaly: 228.6003 deg Mean motion: 15.41231334 rev/day Decay rate: 1.8894e-04 rev/day^2 Epoch rev: 7949 Checksum: 315
Satellite: HO-59 Catalog number: 29484 Epoch time: 07207.55684349 Element set: 534 Inclination: 098.2821 deg RA of node: 263.3733 deg Eccentricity: 0.0199073 Arg of perigee: 124.6302 deg Mean anomaly: 237.3835 deg Mean motion: 15.53858298 rev/day Decay rate: 3.8362e-04 rev/day^2 Epoch rev: 4718 Checksum: 352
Satellite: NO-60 Catalog number: 29661 Epoch time: 07150.05824307 Element set: 300 Inclination: 051.6186 deg RA of node: 176.5045 deg Eccentricity: 0.0007204 Arg of perigee: 190.7749 deg Mean anomaly: 188.7342 deg Mean motion: 16.52052832 rev/day Decay rate: 1.3324117e-01 rev/day^2 Epoch rev: 2554 Checksum: 290
Satellite: NO-61 Catalog number: 29664 Epoch time: 07207.57327692 Element set: 330 Inclination: 051.6302 deg RA of node: 244.4262 deg Eccentricity: 0.0011280 Arg of perigee: 129.0027 deg Mean anomaly: 231.1967 deg Mean motion: 15.94148351 rev/day Decay rate: 1.8261e-04 rev/day^2 Epoch rev: 3443 Checksum: 281
Satellite: CP4 Catalog number: 31122 Epoch time: 07206.69867539 Element set: 0093 Inclination: 098.0850 deg RA of node: 278.7318 deg Eccentricity: 0.0084409 Arg of perigee: 265.8977 deg Mean anomaly: 093.2548 deg Mean motion: 14.55020730 rev/day Decay rate: 5.95e-06 rev/day^2 Epoch rev: 01445 Checksum: 328
Satellite: CP3 Catalog number: 31128 Epoch time: 07206.63966973 Element set: 0087 Inclination: 098.0809 deg RA of node: 278.1782 deg Eccentricity: 0.0101769 Arg of perigee: 267.1215 deg Mean anomaly: 091.8340 deg Mean motion: 14.51849792 rev/day Decay rate: -4.9e-07 rev/day^2 Epoch rev: 01440 Checksum: 322
Satellite: LIBERT Catalog number: 31129 Epoch time: 07207.80531581 Element set: 247 Inclination: 098.0792 deg RA of node: 279.3060 deg Eccentricity: 0.0101752 Arg of perigee: 263.7739 deg Mean anomaly: 095.1758 deg Mean motion: 14.51942823 rev/day Decay rate: 3.83e-06 rev/day^2 Epoch rev: 1455 Checksum: 303
/EX SB KEPS @ AMSAT $ORB07207.W Orbital Elements 07207.WEATHER
HR AMSAT ORBITAL ELEMENTS FOR WEATHER SATELLITES FROM WA5QGD FORT WORTH,TX July 26, 2007 Send Subscribe/unsubscribe to KEPS at http://www.amsat.org/mailman/listinfo/keps BID: ORB07207.W TO ALL RADIO AMATEURS BT
Satellite: NOAA-10 Catalog number: 16969 Epoch time: 07207.06879721 Element set: 741 Inclination: 098.7448 deg RA of node: 224.2719 deg Eccentricity: 0.0013317 Arg of perigee: 056.2465 deg Mean anomaly: 303.9981 deg Mean motion: 14.27330109 rev/day Decay rate: 3.3e-07 rev/day^2 Epoch rev: 8477 Checksum: 316
